[[{"header":{"parameterUnit":"m.s-1","parameterCategory":2,"la1":30.2991,"la2":30.254,"lo1":-89.0895,"lo2":-89.0444,"dy":0.0017,"dx":0.0017,"nx":28,"ny":28,"refTime":"2024-04-25T21:00:00:Z","depth":"0","parameterNumber":2,"parameterNumberName":"U-component_of_CURRENTS"},"data":[0,0,0,0,0,0,0,0,0,0,0,0,0,0,0,0,0,0,0,0,0,0,0,0,0,0,0,0,0,0,0,0,0,0,0,0,0,0,0,0,0,0,0,0,0,0,0,0,0,0,0,0,0,0,0,0,0,0,0.2506,0.2507,0,0.2532,0.2532,0.2532,0.2519,0.2518,0.2518,0.2518,0.2523,0.2523,0.2524,0,0,0,0,0,0,0,0,0,0,0,0,0,0.2438,0.2439,0.2506,0.2507,0.2507,0.2532,0.2532,0.2532,0.2519,0.2518,0.2518,0.2517,0.2523,0.2523,0.2524,0,0,0,0,0,0,0,0,0,0,0,0,0,0.2463,0.2439,0.2506,0.2506,0.2506,0.2532,0.2532,0.2532,0.2519,0.2518,0.2518,0.2517,0.2522,0.2523,0.2524,0.2542,0,0,0.2526,0.2527,0,0,0,0,0,0,0,0,0.2462,0.2465,0.2505,0.2506,0.2506,0.2524,0.251,0.2535,0.2519,0.2511,0.2518,0.2517,0.2524,0.2524,0.2527,0.2542,0.2542,0.2527,0.2527,0.2527,0.2528,0,0,0,0,0,0,0,0.246,0.2464,0.2513,0.2506,0.2507,0.2502,0.2504,0.2514,0.2518,0.2512,0.2512,0.2519,0.2523,0.2526,0.2527,0.2542,0.2527,0.2527,0.2528,0.2528,0.2612,0.2614,0,0,0,0,0,0,0.2464,0.2463,0.2513,0.2514,0.2485,0.2504,0.2507,0.2517,0.2518,0.2519,0.252,0.2518,0.2525,0.2526,0.2527,0.2592,0.2527,0.2528,0.2529,0.2611,0.2613,0.2615,0,0,0,0,0,0,0.2462,0.2468,0.2512,0.2491,0.2497,0.2506,0.2517,0.2518,0.2524,0.2525,0.2525,0.2526,0.2525,0.2526,0.2553,0.259,0.2529,0.2529,0.2608,0.2611,0.2614,0.2693,0,0,0,0,0,0,0.246,0.2468,0.2476,0.2492,0.2498,0.2544,0.2518,0.2519,0.2531,0.2529,0.2531,0.253,0.2524,0.2552,0.2554,0.259,0.253,0.2606,0.261,0.2613,0.2688,0.2698,0.2706,0,0,0,0,0,0.2458,0.247,0.2476,0.2482,0.2509,0.2545,0.2549,0.255,0.2532,0.2549,0.2549,0.253,0.2574,0.2554,0.2556,0.2593,0.2605,0.2609,0.2612,0.2684,0.2696,0.2706,0,0,0,0,0,0,0.2449,0.2471,0.2477,0.2497,0.2529,0.2544,0.2557,0.2556,0.2568,0.2563,0.2552,0.2554,0.2594,0.2582,0.256,0.2627,0.2587,0.2591,0.2641,0.2652,0.2661,0.2647,0.2531,0,0,0,0,0,0.2452,0.2463,0.2496,0.2514,0.253,0.2544,0.2556,0.2563,0.2576,0.258,0.2584,0.259,0.2612,0.2621,0.2636,0.267,0.2658,0.2695,0.2704,0.2712,0.2702,0.2719,0.2728,0.2627,0.2627,0.2627,0,0,0.2448,0.2467,0.247,0.2512,0.253,0.2566,0.2549,0.2578,0.2606,0.258,0.2615,0.2624,0.2629,0.2673,0.269,0.2667,0.2741,0.2717,0.2724,0.2709,0.2724,0.2733,0.2742,0.263,0.263,0.2629,0,0,0.2456,0.2473,0.2488,0.252,0.2561,0.2582,0.2593,0.2623,0.2636,0.2674,0.2669,0.2695,0.2721,0.2739,0.2747,0.2813,0.2791,0.2824,0.2857,0.2875,0.2882,0.2889,0.2912,0.292,0.2826,0.2827,0.2827,0,0.245,0.2485,0.2501,0.2536,0.2566,0.2591,0.2629,0.2654,0.2689,0.2703,0.2695,0.2742,0.2751,0.2801,0.283,0.2834,0.2839,0.2816,0.2886,0.2892,0.2897,0.2919,0.2927,0.2831,0.283,0.283,0.2829,0,0.2476,0.251,0.2528,0.258,0.2616,0.2655,0.27,0.2733,0.2748,0.2766,0.2815,0.2831,0.2852,0.2875,0.2873,0.2928,0.2919,0.2898,0.2855,0.2912,0.2932,0.2938,0.2837,0.2835,0.2834,0.2833,0,0,0.2441,0.2527,0.2532,0.2565,0.2644,0.2669,0.2735,0.2793,0.2814,0.2855,0.2884,0.2938,0.2934,0.2943,0.2954,0.2973,0.3034,0.2957,0.2956,0.2975,0.3081,0.3104,0.3113,0.3027,0.3028,0.3028,0.3089,0,0.2459,0.2524,0.2569,0.2635,0.2675,0.2729,0.278,0.283,0.2868,0.2904,0.2932,0.2962,0.2966,0.2977,0.3005,0.3023,0.3051,0.302,0.3026,0.3026,0.3035,0.3122,0.3073,0.3124,0.3095,0.3096,0.3097,0,0.2465,0.2515,0.2576,0.266,0.268,0.2718,0.2791,0.2843,0.2908,0.2935,0.2976,0.2989,0.3045,0.3024,0.3088,0.3069,0.3082,0.3091,0.3093,0.3083,0.3061,0.3058,0.3137,0.3104,0.3106,0.3105,0.3105,0,0.242,0.2514,0.256,0.259,0.2688,0.2715,0.2768,0.2838,0.2875,0.2948,0.2972,0.3032,0.3059,0.3089,0.3133,0.3107,0.3193,0.3153,0.3188,0.3189,0.3131,0.3126,0.3169,0.3188,0.3188,0.3188,0.3188,0,0.2418,0.2454,0.2533,0.2557,0.2598,0.2678,0.2723,0.2782,0.2859,0.2899,0.2973,0.3013,0.3074,0.3131,0.3154,0.3216,0.3216,0.3211,0.3213,0.3162,0.3159,0.3111,0.3092,0.319,0.319,0.3189,0.3189,0,0.2361,0.242,0.2466,0.2554,0.2574,0.2596,0.269,0.2713,0.2811,0.2867,0.289,0.3005,0.31,0.3171,0.3236,0.3246,0.323,0.3309,0.3258,0.3253,0.3232,0.3219,0.3099,0.3001,0.3343,0.3344,0.3345,0,0.2341,0.2359,0.2428,0.2438,0.2473,0.2525,0.2548,0.2663,0.2698,0.2857,0.2867,0.3,0.3098,0.3241,0.3301,0.3379,0.3271,0.3344,0.3281,0.3249,0.3234,0.3074,0.2986,0.3242,0.3242,0.3242,0.3242,0,0.2298,0.2311,0.2343,0.2365,0.2381,0.2413,0.2467,0.2492,0.2627,0.2706,0.2824,0.2929,0.3125,0.3217,0.3351,0.3374,0.3224,0.3345,0.3315,0.3175,0.2995,0.2896,0.3191,0.3242,0.3242,0.3242,0.3242,0.3242,0.2246,0.2246,0.2275,0.2284,0.2295,0.2294,0.2292,0.2368,0.2437,0.2546,0.2713,0.2859,0.3096,0.3298,0.3311,0.3334,0.3237,0.3262,0.3256,0.31,0.2979,0.3291,0.3341,0.3342,0.3342,0.3343,0.3343,0,0.2194,0.2193,0.2197,0.2198,0.2162,0.2206,0.222,0.2211,0.2256,0.2439,0.2566,0.2833,0.3014,0.318,0.3352,0.3284,0.3076,0.3194,0.2958,0.2877,0.3182,0.3156,0.3164,0.3164,0.3164,0.3164,0.3164,0.3164,0.2167,0.2149,0.2148,0.2068,0.2055,0.1987,0.1973,0.1984,0.2089,0.2241,0.2406,0.2589,0.2954,0.3283,0.3358,0.3268,0.301,0.2894,0.2823,0.3088,0.3092,0.3096,0.3067,0.3056,0.3055,0.2393,0.2389,0.2386]},{"header":{"parameterUnit":"m.s-1","parameterCategory":2,"la1":30.2991,"la2":30.254,"lo1":-89.0895,"lo2":-89.0444,"dy":0.0017,"dx":0.0017,"nx":28,"ny":28,"refTime":"2024-04-25T21:00:00:Z","depth":"0","parameterNumber":3,"parameterNumberName":"V-component_of_CURRENTS"},"data":[0,0,0,0,0,0,0,0,0,0,0,0,0,0,0,0,0,0,0,0,0,0,0,0,0,0,0,0,0,0,0,0,0,0,0,0,0,0,0,0,0,0,0,0,0,0,0,0,0,0,0,0,0,0,0,0,0,0,-0.0007,-0.0008,0,-0.0087,-0.0088,-0.0089,-0.0141,-0.0141,-0.0142,-0.0142,-0.0287,-0.029,-0.0294,0,0,0,0,0,0,0,0,0,0,0,0,0,0.0048,0.0047,-0.0007,-0.0008,-0.0009,-0.0087,-0.0088,-0.0089,-0.0141,-0.0141,-0.0142,-0.0142,-0.0286,-0.029,-0.0294,0,0,0,0,0,0,0,0,0,0,0,0,0,0.0001,0.0047,-0.0007,-0.0044,-0.0048,-0.0087,-0.0088,-0.009,-0.0141,-0.0141,-0.0142,-0.0142,-0.0284,-0.029,-0.0295,-0.0321,0,0,-0.0312,-0.0314,0,0,0,0,0,0,0,0,0.0004,-0.0001,-0.0037,-0.0041,-0.0046,-0.0104,-0.0122,-0.017,-0.0141,-0.0107,-0.0142,-0.0142,-0.0231,-0.0241,-0.0255,-0.0328,-0.0334,-0.0312,-0.0315,-0.0318,-0.0319,0,0,0,0,0,0,0,0.0007,0.0002,-0.004,-0.0038,-0.0043,-0.0074,-0.0081,-0.0131,-0.0167,-0.011,-0.0113,-0.0121,-0.0234,-0.025,-0.0259,-0.0336,-0.0312,-0.0317,-0.032,-0.0322,-0.0423,-0.0422,0,0,0,0,0,0,0.0022,0.0005,-0.0037,-0.0042,-0.002,-0.0074,-0.0082,-0.0085,-0.0166,-0.0177,-0.012,-0.0123,-0.024,-0.0253,-0.0265,-0.0289,-0.0318,-0.0323,-0.0326,-0.0423,-0.0422,-0.0422,0,0,0,0,0,0,0.0024,0.0019,-0.0034,-0.002,-0.0029,-0.0074,-0.0078,-0.0087,-0.0103,-0.0173,-0.0186,-0.0127,-0.0241,-0.0257,-0.0307,-0.0296,-0.0325,-0.033,-0.0424,-0.0423,-0.0422,-0.0345,0,0,0,0,0,0,0.0026,0.002,0.0024,-0.0019,-0.0029,-0.005,-0.0078,-0.0088,-0.0106,-0.0111,-0.0184,-0.0197,-0.0243,-0.0298,-0.0312,-0.0304,-0.0334,-0.0425,-0.0423,-0.0422,-0.0349,-0.0342,-0.0336,0,0,0,0,0,0.0028,0.0036,0.0025,0.002,-0.0022,-0.005,-0.0058,-0.0093,-0.0106,-0.0109,-0.016,-0.0195,-0.0301,-0.0303,-0.0319,-0.0312,-0.0425,-0.0424,-0.0422,-0.0351,-0.0343,-0.0336,0,0,0,0,0,0,0.0061,0.003,0.0017,0.0015,-0.0012,-0.0058,-0.0063,-0.0087,-0.0128,-0.0132,-0.0199,-0.0216,-0.0252,-0.0292,-0.0293,-0.0335,-0.0365,-0.0366,-0.0305,-0.0298,-0.0292,-0.027,-0.0339,0,0,0,0,0,0.0072,0.007,0.0033,0.0033,0.0023,-0.0018,-0.0033,-0.0055,-0.0097,-0.0115,-0.0165,-0.0215,-0.0259,-0.0286,-0.0331,-0.0363,-0.0394,-0.0364,-0.0358,-0.0352,-0.0345,-0.0385,-0.0382,-0.0417,-0.0417,-0.0417,0,0,0.0083,0.0067,0.0065,0.004,0.0017,0.0013,-0.0028,-0.0043,-0.0049,-0.0126,-0.0149,-0.0199,-0.0262,-0.0293,-0.0312,-0.0327,-0.0356,-0.0351,-0.0346,-0.0341,-0.0384,-0.038,-0.0377,-0.0416,-0.0417,-0.0417,0,0,0.011,0.0095,0.0103,0.0087,0.0061,0.0038,0.0037,-0.0004,-0.0023,-0.0054,-0.0105,-0.0149,-0.0215,-0.0257,-0.0288,-0.0275,-0.0321,-0.0284,-0.0239,-0.0279,-0.0276,-0.0274,-0.0296,-0.0297,-0.0281,-0.0281,-0.0281,0,0.0127,0.0134,0.0101,0.0106,0.0101,0.0055,0.0065,0.0039,-0.0013,-0.0026,-0.0049,-0.0138,-0.0196,-0.0235,-0.023,-0.0262,-0.0284,-0.0263,-0.027,-0.0269,-0.0269,-0.0292,-0.0293,-0.0277,-0.0277,-0.0278,-0.0278,0,0.0158,0.0166,0.0171,0.0166,0.0154,0.0156,0.012,0.0105,0.0078,0.0049,0.0009,-0.0068,-0.0119,-0.0142,-0.0187,-0.0208,-0.0224,-0.0257,-0.0287,-0.026,-0.0286,-0.0289,-0.0271,-0.0273,-0.0274,-0.0275,0,0,0.0194,0.0195,0.0197,0.021,0.0189,0.0183,0.0178,0.0159,0.0165,0.0107,0.0103,0.0019,-0.0018,-0.0055,-0.0115,-0.0153,-0.0173,-0.0195,-0.0199,-0.0212,-0.0243,-0.0249,-0.0253,-0.0206,-0.0207,-0.0207,-0.0258,0,0.0233,0.0267,0.0249,0.0279,0.0296,0.0258,0.0262,0.0236,0.021,0.0194,0.0114,0.0087,0.0015,-0.0004,-0.0055,-0.0145,-0.018,-0.0155,-0.0272,-0.0275,-0.0279,-0.0257,-0.0221,-0.0263,-0.0261,-0.0262,-0.0263,0,0.027,0.0292,0.0332,0.0349,0.0352,0.0359,0.0361,0.0359,0.0322,0.0301,0.0254,0.0195,0.0124,0.0065,-0.0068,-0.0047,-0.0133,-0.0203,-0.0208,-0.0242,-0.0286,-0.0293,-0.027,-0.0438,-0.0268,-0.0268,-0.0267,0,0.0321,0.0348,0.0386,0.0391,0.0401,0.0408,0.0414,0.0395,0.041,0.0374,0.0383,0.0282,0.0245,0.012,-0.0029,-0.0047,-0.0166,-0.0215,-0.0299,-0.03,-0.0308,-0.0309,-0.0457,-0.0301,-0.0301,-0.03,-0.03,0,0.037,0.0402,0.0415,0.0438,0.0491,0.047,0.0518,0.0508,0.0509,0.0549,0.0448,0.0457,0.0258,0.0163,0.0013,-0.0142,-0.0137,-0.0282,-0.0314,-0.0278,-0.0276,-0.0454,-0.0573,-0.0302,-0.0302,-0.0302,-0.0301,0,0.0419,0.0428,0.0478,0.0503,0.0518,0.0555,0.06,0.0632,0.0627,0.0677,0.0674,0.0586,0.0469,0.0275,0.0076,-0.0072,-0.0334,-0.0287,-0.0222,-0.0245,-0.0489,-0.0604,-0.0802,-0.0907,-0.039,-0.0391,-0.0391,0,0.045,0.0482,0.0534,0.0571,0.0586,0.064,0.0682,0.0694,0.0738,0.0769,0.08,0.071,0.0679,0.0386,0.01,-0.0152,-0.0339,-0.0296,-0.0337,-0.049,-0.0642,-0.0726,-0.0807,-0.0314,-0.0313,-0.0313,-0.0313,0,0.0511,0.0525,0.0566,0.065,0.07,0.0767,0.083,0.0888,0.0919,0.098,0.1042,0.1031,0.0755,0.0509,0.0145,-0.0039,-0.043,-0.0299,-0.0482,-0.0612,-0.069,-0.0808,-0.0287,-0.0311,-0.0311,-0.0311,-0.0311,-0.0311,0.0561,0.0602,0.0656,0.0733,0.0799,0.0892,0.0967,0.1045,0.116,0.1274,0.1244,0.13,0.0893,0.0404,0.0109,-0.0399,-0.0443,-0.0535,-0.0664,-0.0735,-0.0838,-0.0302,-0.0351,-0.0351,-0.0351,-0.0352,-0.0352,0,0.063,0.0669,0.0739,0.0835,0.0913,0.0937,0.1063,0.1146,0.1305,0.1445,0.1525,0.1405,0.0933,0.0422,-0.0287,-0.067,-0.0842,-0.0887,-0.1005,-0.1075,-0.0604,-0.0601,-0.0676,-0.0676,-0.0675,-0.0675,-0.0675,-0.0675,0.0676,0.0747,0.0779,0.0915,0.0983,0.1111,0.1192,0.1326,0.1457,0.164,0.173,0.1744,0.1373,0.0081,-0.0807,-0.1035,-0.1346,-0.1399,-0.1591,-0.1267,-0.1244,-0.1222,-0.1244,-0.1453,-0.1455,-0.1983,-0.1989,-0.1993]}],[{"header":{"parameterUnit":"m.s-1","parameterCategory":2,"la1":30.2991,"la2":30.254,"lo1":-89.0895,"lo2":-89.0444,"dy":0.0017,"dx":0.0017,"nx":28,"ny":28,"refTime":"2024-04-25T21:00:00:Z","depth":"2","parameterNumber":2,"parameterNumberName":"U-component_of_CURRENTS"},"data":[0,0,0,0,0,0,0,0,0,0,0,0,0,0,0,0,0,0,0,0,0,0,0,0,0,0,0,0,0,0,0,0,0,0,0,0,0,0,0,0,0,0,0,0,0,0,0,0,0,0,0,0,0,0,0,0,0,0,0.2474,0.2475,0,0.2497,0.2498,0.2498,0.2499,0.2499,0.2499,0.2499,0.2517,0.2518,0.2519,0,0,0,0,0,0,0,0,0,0,0,0,0,0.2427,0.2428,0.2474,0.2475,0.2475,0.2497,0.2498,0.2498,0.25,0.2499,0.2499,0.2498,0.2517,0.2518,0.2519,0,0,0,0,0,0,0,0,0,0,0,0,0,0.2449,0.2428,0.2474,0.2478,0.2478,0.2497,0.2498,0.2498,0.25,0.2499,0.2499,0.2498,0.2517,0.2518,0.2519,0.2535,0,0,0.2522,0.2523,0,0,0,0,0,0,0,0,0.2448,0.2451,0.2477,0.2478,0.2478,0.2495,0.2488,0.251,0.25,0.2492,0.2499,0.2498,0.2509,0.2511,0.2517,0.2536,0.2537,0.2523,0.2523,0.2524,0.2524,0,0,0,0,0,0,0,0.2446,0.245,0.2484,0.2477,0.2478,0.2477,0.2479,0.2492,0.2503,0.2493,0.2493,0.2495,0.251,0.2516,0.2517,0.2537,0.2523,0.2524,0.2524,0.2525,0.2615,0.2617,0,0,0,0,0,0,0.2443,0.2449,0.2483,0.2485,0.2461,0.2478,0.2481,0.249,0.2503,0.2505,0.2495,0.2495,0.2514,0.2516,0.2518,0.259,0.2524,0.2525,0.2525,0.2614,0.2616,0.2618,0,0,0,0,0,0,0.2442,0.2447,0.2482,0.2466,0.247,0.2479,0.249,0.2491,0.2508,0.2505,0.2506,0.2512,0.2514,0.2516,0.2551,0.2588,0.2525,0.2526,0.2612,0.2614,0.2617,0.2699,0,0,0,0,0,0,0.2441,0.2446,0.2455,0.2466,0.2471,0.2521,0.249,0.2492,0.2509,0.2509,0.2519,0.252,0.2514,0.255,0.2552,0.2589,0.2527,0.2609,0.2613,0.2616,0.2695,0.2705,0.2713,0,0,0,0,0,0.244,0.2451,0.2455,0.2459,0.2482,0.2523,0.2527,0.253,0.251,0.2539,0.2539,0.252,0.2572,0.2553,0.2555,0.2592,0.2608,0.2612,0.2616,0.269,0.2703,0.2713,0,0,0,0,0,0,0.2441,0.2453,0.2457,0.2474,0.251,0.2523,0.2538,0.254,0.2561,0.2552,0.2544,0.2547,0.2592,0.2581,0.256,0.2628,0.2586,0.2591,0.2642,0.2653,0.2663,0.2646,0.2528,0,0,0,0,0,0.2445,0.2453,0.2481,0.2499,0.2514,0.2529,0.2542,0.255,0.2566,0.2574,0.2582,0.2587,0.2609,0.2622,0.2636,0.2675,0.2661,0.2699,0.2709,0.2717,0.2705,0.272,0.2729,0.263,0.263,0.263,0,0,0.2443,0.2457,0.2457,0.2499,0.2517,0.255,0.2537,0.2567,0.2593,0.2573,0.261,0.2623,0.2626,0.2673,0.2691,0.2669,0.2745,0.2722,0.2728,0.2712,0.2725,0.2734,0.2743,0.2633,0.2632,0.2632,0,0,0.2452,0.2468,0.248,0.2514,0.2552,0.2569,0.2584,0.2614,0.263,0.2674,0.2663,0.2696,0.2728,0.2741,0.2749,0.2816,0.2794,0.2828,0.2862,0.2878,0.2886,0.2892,0.2915,0.2923,0.2832,0.2832,0.2832,0,0.2446,0.2478,0.2495,0.2529,0.2557,0.2581,0.2617,0.2642,0.2681,0.2699,0.2697,0.2748,0.2758,0.2802,0.2831,0.2837,0.2842,0.2821,0.2889,0.2895,0.2901,0.2922,0.293,0.2836,0.2836,0.2835,0.2835,0,0.2474,0.2504,0.2521,0.2566,0.2605,0.2644,0.2684,0.272,0.2739,0.276,0.2815,0.2834,0.286,0.2882,0.2879,0.293,0.2922,0.2901,0.2859,0.2916,0.2935,0.2942,0.2843,0.2841,0.284,0.2839,0,0,0.2437,0.2519,0.2523,0.2556,0.263,0.2659,0.2716,0.2775,0.2795,0.2847,0.2881,0.2936,0.294,0.2947,0.2956,0.2975,0.3036,0.296,0.2959,0.2979,0.3083,0.3098,0.3106,0.303,0.3031,0.3032,0.3091,0,0.2453,0.2514,0.2558,0.2621,0.2659,0.2712,0.2759,0.2811,0.2852,0.2893,0.2926,0.296,0.2967,0.2982,0.301,0.3024,0.3053,0.3022,0.3026,0.3026,0.303,0.3113,0.2853,0.2886,0.3097,0.3098,0.3099,0,0.2461,0.2506,0.2565,0.2648,0.2667,0.2707,0.278,0.2827,0.2892,0.2926,0.2972,0.2989,0.3043,0.3025,0.3086,0.307,0.3083,0.3091,0.3093,0.3074,0.3053,0.2858,0.2889,0.3109,0.3108,0.3107,0.3106,0,0.2419,0.2507,0.2551,0.2582,0.2676,0.2709,0.276,0.283,0.2866,0.2939,0.2967,0.3028,0.3057,0.3086,0.3131,0.3107,0.3189,0.3151,0.3178,0.3179,0.2939,0.2918,0.3183,0.3183,0.3183,0.3183,0.3183,0,0.2417,0.2451,0.2529,0.2554,0.2597,0.2679,0.2726,0.2783,0.2857,0.2896,0.297,0.301,0.3072,0.3128,0.3151,0.3208,0.3211,0.3199,0.3201,0.2967,0.2949,0.3112,0.3103,0.3185,0.3185,0.3184,0.3184,0,0.2364,0.2419,0.2465,0.2554,0.2575,0.2602,0.2696,0.272,0.2814,0.2867,0.2891,0.3005,0.3097,0.3166,0.3229,0.3236,0.3279,0.3292,0.3031,0.3002,0.3247,0.3242,0.3314,0.3316,0.3317,0.3317,0.3318,0,0.2345,0.2364,0.2431,0.2441,0.248,0.2536,0.2559,0.2672,0.2706,0.2858,0.2868,0.2999,0.3085,0.3221,0.3244,0.3307,0.3334,0.3095,0.3003,0.327,0.3264,0.3256,0.325,0.2717,0.2713,0.2709,0.2707,0,0.2306,0.232,0.2351,0.2372,0.2393,0.2423,0.2481,0.2505,0.2636,0.2709,0.2825,0.2919,0.3072,0.3042,0.3149,0.3135,0.3068,0.3031,0.3355,0.2751,0.2718,0.2709,0.2719,0.2675,0.2679,0.2681,0.2682,0.2684,0.2257,0.2259,0.2286,0.2296,0.231,0.2309,0.2308,0.2386,0.2451,0.2529,0.2687,0.2754,0.2825,0.2876,0.2824,0.2785,0.2995,0.284,0.2844,0.2854,0.2801,0.2774,0.2732,0.2735,0.2738,0.274,0.2743,0,0.2205,0.2209,0.2213,0.2215,0.2181,0.2225,0.2241,0.2227,0.227,0.2378,0.2471,0.2344,0.237,0.244,0.2356,0.2404,0.2304,0.2288,0.2114,0.2151,0.2182,0.2086,0.1832,0.1828,0.1825,0.1822,0,0,0.2181,0.2161,0.2159,0.2085,0.2077,0.2016,0.2003,0.2011,0.2065,0.2059,0.2074,0.2249,0.2396,0.2071,0.2055,0.1931,0.2008,0.1851,0.2592,0.2426,0.2452,0.2528,0.243,0,0,0,0,0]},{"header":{"parameterUnit":"m.s-1","parameterCategory":2,"la1":30.2991,"la2":30.254,"lo1":-89.0895,"lo2":-89.0444,"dy":0.0017,"dx":0.0017,"nx":28,"ny":28,"refTime":"2024-04-25T21:00:00:Z","depth":"2","parameterNumber":3,"parameterNumberName":"V-component_of_CURRENTS"},"data":[0,0,0,0,0,0,0,0,0,0,0,0,0,0,0,0,0,0,0,0,0,0,0,0,0,0,0,0,0,0,0,0,0,0,0,0,0,0,0,0,0,0,0,0,0,0,0,0,0,0,0,0,0,0,0,0,0,0,-0.0059,-0.0059,0,-0.0136,-0.0136,-0.0137,-0.0183,-0.0183,-0.0184,-0.0184,-0.0321,-0.0324,-0.0328,0,0,0,0,0,0,0,0,0,0,0,0,0,-0.0002,-0.0002,-0.0059,-0.006,-0.0061,-0.0135,-0.0136,-0.0138,-0.0183,-0.0183,-0.0184,-0.0184,-0.032,-0.0324,-0.0328,0,0,0,0,0,0,0,0,0,0,0,0,0,-0.0047,-0.0002,-0.0058,-0.0092,-0.0096,-0.0135,-0.0137,-0.0138,-0.0183,-0.0183,-0.0184,-0.0184,-0.0318,-0.0323,-0.0328,-0.0355,0,0,-0.0344,-0.0347,0,0,0,0,0,0,0,0,-0.0045,-0.0049,-0.0086,-0.009,-0.0094,-0.015,-0.0167,-0.0213,-0.0183,-0.015,-0.0184,-0.0184,-0.0269,-0.0278,-0.0291,-0.0361,-0.0367,-0.0345,-0.0348,-0.035,-0.0352,0,0,0,0,0,0,0,-0.0041,-0.0047,-0.0089,-0.0087,-0.0092,-0.0121,-0.0127,-0.0176,-0.0208,-0.0153,-0.0157,-0.0165,-0.0272,-0.0286,-0.0295,-0.0369,-0.0345,-0.0349,-0.0352,-0.0354,-0.0452,-0.0451,0,0,0,0,0,0,-0.0029,-0.0043,-0.0087,-0.0092,-0.0069,-0.0121,-0.0128,-0.0132,-0.0207,-0.0218,-0.0164,-0.0167,-0.0277,-0.0289,-0.03,-0.0322,-0.035,-0.0355,-0.0358,-0.0452,-0.0452,-0.0451,0,0,0,0,0,0,-0.0027,-0.0031,-0.0084,-0.0069,-0.0078,-0.0122,-0.0125,-0.0133,-0.0146,-0.0214,-0.0227,-0.0168,-0.0278,-0.0293,-0.034,-0.0328,-0.0357,-0.0362,-0.0453,-0.0452,-0.0451,-0.0375,0,0,0,0,0,0,-0.0025,-0.003,-0.0027,-0.0068,-0.0078,-0.0097,-0.0125,-0.0135,-0.015,-0.0154,-0.0222,-0.0235,-0.0279,-0.0332,-0.0345,-0.0336,-0.0366,-0.0454,-0.0452,-0.0452,-0.0378,-0.0372,-0.0366,0,0,0,0,0,-0.0022,-0.0015,-0.0026,-0.0031,-0.0072,-0.0097,-0.0104,-0.0137,-0.015,-0.015,-0.0199,-0.0233,-0.0334,-0.0336,-0.0351,-0.0344,-0.0454,-0.0453,-0.0452,-0.0381,-0.0373,-0.0366,0,0,0,0,0,0,0.0013,-0.002,-0.0033,-0.0035,-0.006,-0.0104,-0.0108,-0.0131,-0.0168,-0.0172,-0.0236,-0.0253,-0.0287,-0.0326,-0.0326,-0.0367,-0.0396,-0.0398,-0.0337,-0.033,-0.0324,-0.0301,-0.037,0,0,0,0,0,0.0023,0.0021,-0.0016,-0.0016,-0.0025,-0.0064,-0.0078,-0.0099,-0.0138,-0.0154,-0.0202,-0.0251,-0.0294,-0.032,-0.0364,-0.0393,-0.0424,-0.0395,-0.0389,-0.0383,-0.0374,-0.0415,-0.0411,-0.0447,-0.0447,-0.0447,0,0,0.0036,0.0019,0.0016,-0.0008,-0.0029,-0.0037,-0.0073,-0.0086,-0.0092,-0.0165,-0.0187,-0.0235,-0.0298,-0.0327,-0.0345,-0.0359,-0.0387,-0.0382,-0.0377,-0.037,-0.0413,-0.0409,-0.0406,-0.0446,-0.0446,-0.0446,0,0,0.0064,0.0048,0.0055,0.0041,0.0016,-0.001,-0.001,-0.0049,-0.0065,-0.0095,-0.0145,-0.0185,-0.0251,-0.029,-0.032,-0.0308,-0.0354,-0.0318,-0.0272,-0.0311,-0.0308,-0.0306,-0.0329,-0.033,-0.0314,-0.0314,-0.0314,0,0.008,0.0087,0.0054,0.006,0.0055,0.0007,0.0017,-0.0009,-0.0058,-0.0066,-0.009,-0.0176,-0.0232,-0.0267,-0.0262,-0.0294,-0.0318,-0.0294,-0.0302,-0.0301,-0.03,-0.0325,-0.0327,-0.031,-0.0311,-0.0311,-0.0311,0,0.0114,0.0119,0.0125,0.0115,0.0105,0.0107,0.007,0.0057,0.0029,0.0001,-0.0033,-0.0107,-0.0155,-0.0178,-0.0221,-0.0239,-0.0257,-0.029,-0.0318,-0.0292,-0.032,-0.0323,-0.0305,-0.0306,-0.0307,-0.0308,0,0,0.0149,0.0149,0.0151,0.0163,0.0139,0.0135,0.0128,0.011,0.0117,0.0061,0.0062,-0.0019,-0.0053,-0.0088,-0.0145,-0.0183,-0.0203,-0.0226,-0.023,-0.0243,-0.0275,-0.0282,-0.0287,-0.0237,-0.0237,-0.0237,-0.0292,0,0.0187,0.0219,0.0203,0.023,0.0244,0.0208,0.0212,0.0189,0.0162,0.0148,0.0074,0.0049,-0.0021,-0.0037,-0.0087,-0.0175,-0.0209,-0.0184,-0.0303,-0.0306,-0.0312,-0.0291,-0.0275,-0.0321,-0.0295,-0.0296,-0.0296,0,0.0226,0.0245,0.0285,0.0302,0.0305,0.0311,0.0316,0.0314,0.0279,0.026,0.0217,0.0158,0.0093,0.0033,-0.0097,-0.0077,-0.0163,-0.0234,-0.0238,-0.0274,-0.032,-0.0346,-0.0329,-0.0302,-0.0302,-0.0302,-0.0301,0,0.0278,0.0301,0.0339,0.0344,0.0351,0.0366,0.0368,0.0353,0.0371,0.0336,0.0343,0.0248,0.0211,0.0087,-0.0061,-0.0079,-0.0199,-0.0247,-0.0333,-0.0334,-0.0358,-0.0361,-0.0331,-0.0331,-0.0331,-0.0331,-0.033,0,0.0326,0.0357,0.0368,0.0391,0.0445,0.0428,0.0479,0.0469,0.047,0.0508,0.041,0.0416,0.0223,0.0127,-0.0021,-0.0177,-0.0171,-0.0315,-0.0348,-0.033,-0.0329,-0.0348,-0.0349,-0.0333,-0.0332,-0.0332,-0.0331,0,0.0376,0.0384,0.0432,0.0457,0.0473,0.0512,0.0558,0.0591,0.0587,0.0633,0.0629,0.054,0.0421,0.0231,0.0034,-0.0111,-0.0268,-0.0325,-0.028,-0.0307,-0.0387,-0.0384,-0.0428,-0.0429,-0.043,-0.043,-0.043,0,0.0407,0.0439,0.0488,0.0526,0.0541,0.0596,0.064,0.0652,0.0694,0.0719,0.0747,0.0654,0.0612,0.0321,0.0041,-0.021,-0.0247,-0.0359,-0.0399,-0.0369,-0.0397,-0.0393,-0.0389,-0.04,-0.04,-0.04,-0.04,0,0.0468,0.0483,0.0522,0.0602,0.0655,0.072,0.0782,0.0838,0.0867,0.0915,0.0964,0.0941,0.0665,0.0404,0.0049,-0.0126,-0.0322,-0.0369,-0.0353,-0.0373,-0.0345,-0.0372,-0.0368,-0.0401,-0.0401,-0.0401,-0.0401,-0.0401,0.0515,0.0556,0.0609,0.0684,0.0751,0.084,0.0905,0.098,0.108,0.1132,0.1104,0.1052,0.0762,0.0294,0.0004,-0.032,-0.0313,-0.0435,-0.0434,-0.0433,-0.0415,-0.039,-0.0449,-0.0449,-0.045,-0.045,-0.045,0,0.0573,0.0617,0.0687,0.078,0.0853,0.0885,0.0996,0.1046,0.1178,0.121,0.1229,0.0939,0.0668,0.0341,-0.0137,-0.0407,-0.0435,-0.049,-0.0469,-0.0465,-0.0463,-0.0447,-0.049,-0.0491,-0.0492,-0.0493,0,0,0.0614,0.0681,0.0712,0.0844,0.0917,0.1029,0.1097,0.117,0.1208,0.1223,0.118,0.1086,0.0739,0.0384,0.0022,-0.0236,-0.0291,-0.0288,-0.0229,-0.0158,-0.0152,-0.0406,-0.0373,0,0,0,0,0]}],[{"header":{"parameterUnit":"m.s-1","parameterCategory":2,"la1":30.2991,"la2":30.254,"lo1":-89.0895,"lo2":-89.0444,"dy":0.0017,"dx":0.0017,"nx":28,"ny":28,"refTime":"2024-04-25T21:00:00:Z","depth":"4","parameterNumber":2,"parameterNumberName":"U-component_of_CURRENTS"},"data":[0,0,0,0,0,0,0,0,0,0,0,0,0,0,0,0,0,0,0,0,0,0,0,0,0,0,0,0,0,0,0,0,0,0,0,0,0,0,0,0,0,0,0,0,0,0,0,0,0,0,0,0,0,0,0,0,0,0,0.1537,0.1538,0,0.1593,0.1593,0.1593,0.1641,0.1642,0.1642,0.1643,0.1711,0.1712,0.1713,0,0,0,0,0,0,0,0,0,0,0,0,0,0.1432,0.1434,0.1537,0.1538,0.1539,0.1593,0.1593,0.1593,0.164,0.1642,0.1643,0.1644,0.1711,0.1712,0.1713,0,0,0,0,0,0,0,0,0,0,0,0,0,0.1478,0.1434,0.1536,0.1572,0.1576,0.1593,0.1593,0.1594,0.164,0.1642,0.1643,0.1644,0.171,0.1712,0.1713,0.1694,0,0,0.1717,0.1718,0,0,0,0,0,0,0,0,0.1475,0.1481,0.1566,0.157,0.1574,0.1615,0.1581,0.1629,0.164,0.1611,0.1643,0.1645,0.1682,0.1686,0.1687,0.1698,0.1701,0.1718,0.1718,0.1719,0.1719,0,0,0,0,0,0,0,0.1472,0.1479,0.1554,0.1567,0.1572,0.1572,0.158,0.159,0.1635,0.1614,0.1619,0.1631,0.1684,0.1685,0.1689,0.1702,0.1718,0.1719,0.172,0.172,0.1832,0.1834,0,0,0,0,0,0,0.1475,0.1476,0.1553,0.1557,0.1532,0.1574,0.1582,0.1597,0.1635,0.1643,0.163,0.1633,0.1682,0.1687,0.1691,0.1771,0.1719,0.172,0.1721,0.183,0.1832,0.1835,0,0,0,0,0,0,0.1472,0.1481,0.1551,0.1521,0.153,0.1575,0.159,0.1597,0.1634,0.1648,0.1656,0.1664,0.1683,0.1689,0.173,0.177,0.1721,0.1722,0.1827,0.1831,0.1834,0.1866,0,0,0,0,0,0,0.1469,0.1479,0.1504,0.1521,0.1532,0.1575,0.159,0.1598,0.164,0.1645,0.1679,0.1684,0.1685,0.1727,0.1731,0.1771,0.1723,0.1825,0.1829,0.1833,0.1862,0.187,0.1876,0,0,0,0,0,0.1465,0.1487,0.1505,0.1515,0.156,0.1576,0.1581,0.1614,0.164,0.1652,0.1684,0.1685,0.1756,0.1729,0.1733,0.1775,0.1823,0.1828,0.1832,0.1859,0.1868,0.1876,0,0,0,0,0,0,0.1451,0.1495,0.1515,0.155,0.157,0.1586,0.1612,0.1631,0.1664,0.1686,0.1697,0.1704,0.1761,0.1763,0.1734,0.1823,0.1796,0.1802,0.1815,0.1824,0.1831,0.1839,0.1725,0,0,0,0,0,0.146,0.1495,0.1521,0.1553,0.1568,0.1596,0.1615,0.1636,0.1662,0.168,0.1704,0.1741,0.1777,0.1796,0.1822,0.1856,0.1872,0.1893,0.19,0.1906,0.1918,0.1976,0.1989,0.185,0.185,0.185,0,0,0.1466,0.1495,0.1517,0.1554,0.1578,0.1598,0.161,0.1648,0.1676,0.1681,0.1737,0.1765,0.1793,0.184,0.1867,0.185,0.1954,0.1912,0.1916,0.1926,0.1982,0.1996,0.2008,0.1854,0.1853,0.1852,0,0,0.1477,0.152,0.1546,0.1565,0.1609,0.1624,0.1642,0.1675,0.1707,0.1751,0.1776,0.1826,0.187,0.1898,0.1918,0.1979,0.1992,0.2002,0.2039,0.2095,0.2107,0.2117,0.2148,0.2161,0.2002,0.2002,0.2002,0,0.1484,0.1517,0.1553,0.1575,0.1599,0.1639,0.166,0.1693,0.1737,0.177,0.178,0.1882,0.1899,0.1967,0.1993,0.1995,0.2025,0.1998,0.2103,0.2114,0.2124,0.2153,0.2167,0.2004,0.2004,0.2004,0.2004,0,0.1498,0.1535,0.1552,0.1599,0.1625,0.1653,0.1696,0.1739,0.1788,0.1823,0.1912,0.1943,0.2007,0.2025,0.2028,0.2116,0.2113,0.2104,0.2075,0.2139,0.2167,0.218,0.2007,0.2007,0.2006,0.2005,0,0,0.1482,0.155,0.1558,0.1585,0.1642,0.1662,0.1723,0.178,0.1845,0.19,0.198,0.2043,0.2081,0.2109,0.213,0.2175,0.2261,0.2177,0.2179,0.2196,0.2384,0.2234,0.2234,0.2278,0.2281,0.2283,0.2371,0,0.1483,0.1527,0.1561,0.1609,0.1634,0.1691,0.1745,0.1811,0.1883,0.1971,0.2033,0.2124,0.2109,0.2165,0.2206,0.2259,0.2302,0.2238,0.2329,0.2331,0.2181,0.2246,0.2292,0.2381,0.2384,0.2386,0.2388,0,0.1474,0.151,0.1555,0.1628,0.1647,0.1688,0.1794,0.1851,0.1976,0.2041,0.2135,0.2197,0.2289,0.2271,0.2379,0.2346,0.2374,0.2398,0.2402,0.2261,0.2207,0.2308,0.2412,0.2411,0.2409,0.2407,0.2405,0,0.1435,0.1501,0.1542,0.1564,0.1654,0.1701,0.1763,0.188,0.1953,0.2109,0.2185,0.2293,0.2373,0.243,0.2477,0.2452,0.2585,0.2549,0.2435,0.2425,0.2517,0.2505,0.2629,0.2629,0.2628,0.2628,0.2628,0,0.1406,0.1441,0.1537,0.1559,0.1626,0.17,0.1799,0.1882,0.2024,0.211,0.223,0.2309,0.2424,0.2503,0.2524,0.2518,0.2624,0.2456,0.2444,0.2528,0.2516,0.2526,0.2513,0.2631,0.2631,0.263,0.263,0,0.1346,0.1411,0.1465,0.157,0.161,0.1665,0.1807,0.188,0.2026,0.2145,0.2205,0.236,0.2453,0.2535,0.2637,0.2564,0.2587,0.2559,0.265,0.2641,0.2375,0.2363,0.2433,0.2429,0.2425,0.2422,0.2419,0,0.1313,0.1339,0.1458,0.15,0.1554,0.1652,0.1717,0.1869,0.1941,0.2144,0.2184,0.2344,0.2421,0.2438,0.2535,0.2571,0.254,0.2529,0.2437,0.2377,0.236,0.2353,0.2347,0.2413,0.2412,0.2411,0.241,0,0.1248,0.1308,0.1355,0.1447,0.1522,0.159,0.1693,0.1735,0.1901,0.2046,0.2117,0.2179,0.2277,0.2342,0.2396,0.2411,0.2522,0.2489,0.2496,0.2409,0.2354,0.2339,0.2337,0.2397,0.2399,0.24,0.2401,0,0.12,0.122,0.1302,0.1369,0.1457,0.1498,0.1566,0.1639,0.1727,0.1931,0.1948,0.2106,0.2244,0.2262,0.231,0.2319,0.2275,0.2189,0.221,0.2226,0.2118,0.2014,0.1956,0,0,0,0,0,0.114,0.116,0.1217,0.1284,0.1367,0.1421,0.1533,0.1605,0.1753,0.175,0.1844,0.1921,0.1996,0.2086,0.2055,0.2232,0.2293,0.2186,0.2205,0.2326,0.2341,0.2233,0,0,0,0,0,0,0.1105,0.1155,0.118,0.1199,0.123,0.1308,0.1373,0.1476,0.148,0.1635,0.1687,0.1804,0.191,0.1993,0.2018,0.2045,0.2017,0.2287,0.2282,0.2317,0.2331,0.2343,0.2237,0,0,0,0,0]},{"header":{"parameterUnit":"m.s-1","parameterCategory":2,"la1":30.2991,"la2":30.254,"lo1":-89.0895,"lo2":-89.0444,"dy":0.0017,"dx":0.0017,"nx":28,"ny":28,"refTime":"2024-04-25T21:00:00:Z","depth":"4","parameterNumber":3,"parameterNumberName":"V-component_of_CURRENTS"},"data":[0,0,0,0,0,0,0,0,0,0,0,0,0,0,0,0,0,0,0,0,0,0,0,0,0,0,0,0,0,0,0,0,0,0,0,0,0,0,0,0,0,0,0,0,0,0,0,0,0,0,0,0,0,0,0,0,0,0,-0.0053,-0.0053,0,-0.0096,-0.0097,-0.0097,-0.0126,-0.0126,-0.0127,-0.0127,-0.0212,-0.0214,-0.0216,0,0,0,0,0,0,0,0,0,0,0,0,0,-0.0036,-0.0036,-0.0053,-0.0053,-0.0054,-0.0096,-0.0097,-0.0097,-0.0126,-0.0126,-0.0127,-0.0127,-0.0212,-0.0214,-0.0216,0,0,0,0,0,0,0,0,0,0,0,0,0,-0.0058,-0.0036,-0.0053,-0.0073,-0.0076,-0.0096,-0.0097,-0.0098,-0.0126,-0.0126,-0.0127,-0.0127,-0.0211,-0.0214,-0.0217,-0.023,0,0,-0.0226,-0.0228,0,0,0,0,0,0,0,0,-0.0056,-0.0058,-0.007,-0.0072,-0.0075,-0.0106,-0.0122,-0.0144,-0.0126,-0.0107,-0.0127,-0.0127,-0.018,-0.0186,-0.0193,-0.0234,-0.0238,-0.0227,-0.0229,-0.023,-0.0231,0,0,0,0,0,0,0,-0.0055,-0.0057,-0.007,-0.007,-0.0073,-0.0095,-0.0098,-0.0127,-0.0142,-0.0109,-0.0111,-0.0116,-0.0182,-0.019,-0.0195,-0.0239,-0.0227,-0.0229,-0.0231,-0.0233,-0.0295,-0.0295,0,0,0,0,0,0,-0.0047,-0.0055,-0.0069,-0.0071,-0.0066,-0.0095,-0.0098,-0.0096,-0.0141,-0.0148,-0.0115,-0.0117,-0.0184,-0.0192,-0.0198,-0.0206,-0.023,-0.0233,-0.0235,-0.0295,-0.0295,-0.0295,0,0,0,0,0,0,-0.0046,-0.0047,-0.0067,-0.0065,-0.0069,-0.0094,-0.0092,-0.0096,-0.0106,-0.0146,-0.0153,-0.012,-0.0185,-0.0194,-0.022,-0.021,-0.0234,-0.0237,-0.0295,-0.0295,-0.0295,-0.0229,0,0,0,0,0,0,-0.0045,-0.0047,-0.0043,-0.0064,-0.0069,-0.0071,-0.0092,-0.0097,-0.0108,-0.011,-0.0152,-0.016,-0.0186,-0.0215,-0.0223,-0.0215,-0.024,-0.0296,-0.0295,-0.0295,-0.0232,-0.0227,-0.0222,0,0,0,0,0,-0.0045,-0.0034,-0.0042,-0.0044,-0.0062,-0.0071,-0.0075,-0.0095,-0.0108,-0.0105,-0.0135,-0.0159,-0.0218,-0.0217,-0.0227,-0.022,-0.0296,-0.0295,-0.0295,-0.0234,-0.0228,-0.0223,0,0,0,0,0,0,-0.0025,-0.0037,-0.0046,-0.0039,-0.0052,-0.0075,-0.0076,-0.0092,-0.0114,-0.0119,-0.0158,-0.0168,-0.0189,-0.0214,-0.0212,-0.0237,-0.026,-0.0262,-0.0211,-0.0205,-0.0201,-0.0184,-0.0242,0,0,0,0,0,-0.0018,-0.0012,-0.003,-0.0025,-0.003,-0.0054,-0.0061,-0.0074,-0.0096,-0.0105,-0.0135,-0.0167,-0.0194,-0.0207,-0.0236,-0.0249,-0.028,-0.0251,-0.0246,-0.0242,-0.0235,-0.0278,-0.0276,-0.0293,-0.0293,-0.0293,0,0,-0.0009,-0.0015,-0.0012,-0.0021,-0.0033,-0.0028,-0.0058,-0.0064,-0.0061,-0.0112,-0.0119,-0.0155,-0.0195,-0.0209,-0.022,-0.0228,-0.0252,-0.0241,-0.0237,-0.0233,-0.0277,-0.0275,-0.0274,-0.0293,-0.0293,-0.0293,0,0,0.0015,0.0007,0.0021,0.0015,0.0003,-0.001,-0.001,-0.0032,-0.0042,-0.0056,-0.0091,-0.0117,-0.0158,-0.0179,-0.0197,-0.0185,-0.023,-0.0198,-0.0157,-0.0198,-0.0197,-0.0196,-0.0226,-0.0229,-0.0191,-0.0191,-0.0191,0,0.0027,0.0042,0.0023,0.0035,0.0036,0.0002,0.0018,0.0004,-0.0023,-0.0029,-0.0049,-0.0107,-0.0141,-0.0156,-0.0151,-0.0173,-0.0204,-0.0172,-0.0191,-0.0191,-0.0192,-0.0223,-0.0226,-0.0188,-0.0188,-0.0188,-0.0189,0,0.0061,0.0074,0.0082,0.0089,0.0086,0.0094,0.0075,0.0069,0.0048,0.003,0.0005,-0.0043,-0.0075,-0.0091,-0.0118,-0.0134,-0.0157,-0.0183,-0.0202,-0.0186,-0.022,-0.0225,-0.0183,-0.0184,-0.0185,-0.0186,0,0,0.009,0.0105,0.0108,0.0122,0.0117,0.0119,0.0126,0.0122,0.0127,0.009,0.0088,0.004,0.0007,-0.0015,-0.0056,-0.0088,-0.0117,-0.0131,-0.0135,-0.0154,-0.0204,-0.0202,-0.0208,-0.0151,-0.0152,-0.0152,-0.0224,0,0.0125,0.0162,0.0159,0.0193,0.0209,0.019,0.0201,0.0191,0.0171,0.0159,0.0105,0.0085,0.0038,0.0022,-0.0018,-0.0095,-0.0129,-0.0095,-0.0223,-0.0226,-0.0221,-0.0213,-0.0154,-0.0228,-0.0229,-0.023,-0.023,0,0.016,0.0181,0.0223,0.0247,0.0253,0.0266,0.0276,0.0284,0.0259,0.0242,0.0209,0.0161,0.0113,0.0066,-0.0049,-0.0028,-0.0107,-0.0169,-0.0174,-0.0197,-0.0233,-0.0251,-0.024,-0.0239,-0.0239,-0.0238,-0.0237,0,0.0188,0.0225,0.0261,0.027,0.0291,0.0305,0.0315,0.0308,0.0323,0.0296,0.0294,0.0221,0.0187,0.008,-0.0043,-0.0052,-0.0177,-0.0207,-0.0277,-0.0278,-0.0287,-0.0288,-0.0289,-0.0289,-0.0288,-0.0288,-0.0288,0,0.0223,0.0252,0.0278,0.0297,0.0341,0.0342,0.038,0.0379,0.0384,0.0402,0.034,0.0328,0.0185,0.0097,-0.0024,-0.0159,-0.0164,-0.0266,-0.0296,-0.0258,-0.0254,-0.0291,-0.029,-0.0291,-0.029,-0.029,-0.0289,0,0.0243,0.0264,0.0306,0.0339,0.0356,0.0384,0.043,0.0453,0.0456,0.0476,0.0472,0.0404,0.029,0.0147,-0.0026,-0.0123,-0.0258,-0.0307,-0.024,-0.0267,-0.0338,-0.0333,-0.0391,-0.0392,-0.0392,-0.0392,-0.0393,0,0.0255,0.0279,0.0334,0.0363,0.038,0.0425,0.046,0.0486,0.0511,0.052,0.0526,0.0442,0.0373,0.0144,-0.0014,-0.0232,-0.027,-0.0337,-0.035,-0.0324,-0.0348,-0.0343,-0.0338,-0.0393,-0.0393,-0.0394,-0.0394,0,0.0266,0.0285,0.0316,0.0381,0.0425,0.0481,0.0527,0.0554,0.0582,0.0593,0.0565,0.0457,0.0331,0.0149,-0.0015,-0.0177,-0.0291,-0.0342,-0.0343,-0.0356,-0.0328,-0.035,-0.0344,-0.0395,-0.0395,-0.0395,-0.0395,0,0.0262,0.0284,0.0325,0.0382,0.0445,0.0502,0.0536,0.0562,0.0594,0.0602,0.0592,0.0467,0.0399,0.0178,0.0025,-0.0128,-0.0178,-0.0237,-0.0244,-0.0244,-0.0184,-0.0126,-0.0152,0,0,0,0,0,0.0246,0.0268,0.0321,0.0378,0.0446,0.0483,0.0562,0.0591,0.0625,0.0611,0.0604,0.0488,0.0278,0.0193,0.0038,-0.0004,-0.0215,-0.0191,-0.0289,-0.0404,-0.0402,-0.0356,0,0,0,0,0,0,0.0229,0.027,0.0305,0.0365,0.0401,0.0475,0.0526,0.0559,0.0551,0.0569,0.0461,0.043,0.0224,0.0352,0.0024,-0.0019,-0.0105,-0.0282,-0.0285,-0.0405,-0.0403,-0.0402,-0.0354,0,0,0,0,0]}]]